Year,Month,Day,Hour,Minute,Value (Times are PST for temperature in C)
2012,06,30,00,00,14.80
2012,06,30,00,01,14.80
2012,06,30,00,02,14.80
2012,06,30,00,03,14.80
2012,06,30,00,04,14.80
2012,06,30,00,05,14.80
2012,06,30,00,06,14.80
2012,06,30,00,07,14.80
2012,06,30,00,08,14.80
2012,06,30,00,09,14.80
2012,06,30,00,10,14.80
2012,06,30,00,11,14.80
2012,06,30,00,12,14.80
2012,06,30,00,13,14.80
2012,06,30,00,14,14.80
2012,06,30,00,15,14.90
2012,06,30,00,16,14.90
2012,06,30,00,17,15.00
2012,06,30,00,18,15.00
2012,06,30,00,19,15.10
2012,06,30,00,20,15.20
2012,06,30,00,21,15.20
2012,06,30,00,22,15.30
2012,06,30,00,23,15.30
2012,06,30,00,24,15.30
2012,06,30,00,25,15.30
2012,06,30,00,26,15.30
2012,06,30,00,27,15.30
2012,06,30,00,28,15.30
2012,06,30,00,29,15.30
2012,06,30,00,30,15.40
2012,06,30,00,31,15.50
2012,06,30,00,32,15.50
2012,06,30,00,33,15.60
2012,06,30,00,34,15.70
2012,06,30,00,35,15.80
2012,06,30,00,36,15.80
2012,06,30,00,37,15.80
2012,06,30,00,38,15.80
2012,06,30,00,39,15.80
2012,06,30,00,40,15.90
2012,06,30,00,41,15.90
2012,06,30,00,42,16.00
2012,06,30,00,43,16.10
2012,06,30,00,44,16.10
2012,06,30,00,45,16.10
2012,06,30,00,46,16.10
2012,06,30,00,47,16.10
2012,06,30,00,48,16.10
2012,06,30,00,49,16.10
2012,06,30,00,50,16.00
2012,06,30,00,51,15.90
2012,06,30,00,52,15.80
2012,06,30,00,53,15.70
2012,06,30,00,54,15.60
2012,06,30,00,55,15.50
2012,06,30,00,56,15.50
2012,06,30,00,57,15.40
2012,06,30,00,58,15.30
2012,06,30,00,59,15.20
2012,06,30,01,00,15.10
2012,06,30,01,01,15.00
2012,06,30,01,02,14.90
2012,06,30,01,03,14.90
2012,06,30,01,04,14.80
2012,06,30,01,05,14.60
2012,06,30,01,06,14.50
2012,06,30,01,07,14.40
2012,06,30,01,08,14.30
2012,06,30,01,09,14.30
2012,06,30,01,10,14.20
2012,06,30,01,11,14.20
2012,06,30,01,12,14.20
2012,06,30,01,13,14.20
2012,06,30,01,14,14.20
2012,06,30,01,15,14.20
2012,06,30,01,16,14.20
2012,06,30,01,17,14.30
2012,06,30,01,18,14.30
2012,06,30,01,19,14.30
2012,06,30,01,20,14.20
2012,06,30,01,21,14.20
2012,06,30,01,22,14.10
2012,06,30,01,23,14.00
2012,06,30,01,24,13.90
2012,06,30,01,25,13.70
2012,06,30,01,26,13.60
2012,06,30,01,27,13.50
2012,06,30,01,28,13.40
2012,06,30,01,29,13.30
2012,06,30,01,30,13.30
2012,06,30,01,31,13.20
2012,06,30,01,32,13.20
2012,06,30,01,33,13.20
2012,06,30,01,34,13.20
2012,06,30,01,35,13.10
2012,06,30,01,36,13.00
2012,06,30,01,37,13.00
2012,06,30,01,38,13.00
2012,06,30,01,39,13.00
2012,06,30,01,40,13.00
2012,06,30,01,41,13.10
2012,06,30,01,42,13.10
2012,06,30,01,43,13.20
2012,06,30,01,44,13.20
2012,06,30,01,45,13.30
2012,06,30,01,46,13.30
2012,06,30,01,47,13.30
2012,06,30,01,48,13.30
2012,06,30,01,49,13.30
2012,06,30,01,50,13.30
2012,06,30,01,51,13.30
2012,06,30,01,52,13.40
2012,06,30,01,53,13.40
2012,06,30,01,54,13.40
2012,06,30,01,55,13.50
2012,06,30,01,56,13.50
2012,06,30,01,57,13.50
2012,06,30,01,58,13.50
2012,06,30,01,59,13.60
2012,06,30,02,00,13.60
2012,06,30,02,01,13.60
2012,06,30,02,02,13.60
2012,06,30,02,03,13.60
2012,06,30,02,04,13.70
2012,06,30,02,05,13.70
2012,06,30,02,06,13.70
2012,06,30,02,07,13.70
2012,06,30,02,08,13.70
2012,06,30,02,09,13.70
2012,06,30,02,10,13.80
2012,06,30,02,11,13.80
2012,06,30,02,12,13.80
2012,06,30,02,13,13.80
2012,06,30,02,14,13.80
2012,06,30,02,15,13.80
2012,06,30,02,16,13.80
2012,06,30,02,17,13.70
2012,06,30,02,18,13.70
2012,06,30,02,19,13.70
2012,06,30,02,20,13.70
2012,06,30,02,21,13.70
2012,06,30,02,22,13.70
2012,06,30,02,23,13.70
2012,06,30,02,24,13.70
2012,06,30,02,25,13.60
2012,06,30,02,26,13.60
2012,06,30,02,27,13.60
2012,06,30,02,28,13.60
2012,06,30,02,29,13.60
2012,06,30,02,30,13.60
2012,06,30,02,31,13.60
2012,06,30,02,32,13.60
2012,06,30,02,33,13.60
2012,06,30,02,34,13.60
2012,06,30,02,35,13.70
2012,06,30,02,36,13.70
2012,06,30,02,37,13.70
2012,06,30,02,38,13.70
2012,06,30,02,39,13.70
2012,06,30,02,40,13.70
2012,06,30,02,41,13.70
2012,06,30,02,42,13.70
2012,06,30,02,43,13.70
2012,06,30,02,44,13.70
2012,06,30,02,45,13.70
2012,06,30,02,46,13.70
2012,06,30,02,47,13.70
2012,06,30,02,48,13.70
2012,06,30,02,49,13.70
2012,06,30,02,50,13.60
2012,06,30,02,51,13.60
2012,06,30,02,52,13.60
2012,06,30,02,53,13.60
2012,06,30,02,54,13.60
2012,06,30,02,55,13.60
2012,06,30,02,56,13.60
2012,06,30,02,57,13.70
2012,06,30,02,58,13.70
2012,06,30,02,59,13.70
2012,06,30,03,00,13.70
2012,06,30,03,01,13.70
2012,06,30,03,02,13.70
2012,06,30,03,03,13.70
2012,06,30,03,04,13.60
2012,06,30,03,05,13.60
2012,06,30,03,06,13.60
2012,06,30,03,07,13.60
2012,06,30,03,08,13.60
2012,06,30,03,09,13.60
2012,06,30,03,10,13.60
2012,06,30,03,11,13.60
2012,06,30,03,12,13.70
2012,06,30,03,13,13.70
2012,06,30,03,14,13.70
2012,06,30,03,15,13.70
2012,06,30,03,16,13.70
2012,06,30,03,17,13.70
2012,06,30,03,18,13.70
2012,06,30,03,19,13.70
2012,06,30,03,20,13.70
2012,06,30,03,21,13.70
2012,06,30,03,22,13.70
2012,06,30,03,23,13.70
2012,06,30,03,24,13.70
2012,06,30,03,25,13.70
2012,06,30,03,26,13.70
2012,06,30,03,27,13.70
2012,06,30,03,28,13.70
2012,06,30,03,29,13.70
2012,06,30,03,30,13.70
2012,06,30,03,31,13.70
2012,06,30,03,32,13.70
2012,06,30,03,33,13.70
2012,06,30,03,34,13.70
2012,06,30,03,35,13.60
2012,06,30,03,36,13.60
2012,06,30,03,37,13.60
2012,06,30,03,38,13.60
2012,06,30,03,39,13.60
2012,06,30,03,40,13.60
2012,06,30,03,41,13.60
2012,06,30,03,42,13.50
2012,06,30,03,43,13.50
2012,06,30,03,44,13.50
2012,06,30,03,45,13.50
2012,06,30,03,46,13.50
2012,06,30,03,47,13.50
2012,06,30,03,48,13.50
2012,06,30,03,49,13.60
2012,06,30,03,50,13.60
2012,06,30,03,51,13.60
2012,06,30,03,52,13.60
2012,06,30,03,53,13.60
2012,06,30,03,54,13.70
2012,06,30,03,55,13.70
2012,06,30,03,56,13.70
2012,06,30,03,57,13.70
2012,06,30,03,58,13.70
2012,06,30,03,59,13.80
2012,06,30,04,00,13.80
2012,06,30,04,01,13.90
2012,06,30,04,02,13.90
2012,06,30,04,03,13.90
2012,06,30,04,04,13.90
2012,06,30,04,05,14.00
2012,06,30,04,06,14.00
2012,06,30,04,07,14.00
2012,06,30,04,08,14.00
2012,06,30,04,09,14.00
2012,06,30,04,10,14.00
2012,06,30,04,11,14.00
2012,06,30,04,12,14.00
2012,06,30,04,13,14.00
2012,06,30,04,14,14.00
2012,06,30,04,15,14.10
2012,06,30,04,16,14.10
2012,06,30,04,17,14.10
2012,06,30,04,18,14.10
2012,06,30,04,19,14.10
2012,06,30,04,20,14.10
2012,06,30,04,21,14.10
2012,06,30,04,22,14.20
2012,06,30,04,23,14.20
2012,06,30,04,24,14.20
2012,06,30,04,25,14.20
2012,06,30,04,26,14.20
2012,06,30,04,27,14.20
2012,06,30,04,28,14.20
2012,06,30,04,29,14.20
2012,06,30,04,30,14.20
2012,06,30,04,31,14.20
2012,06,30,04,32,14.20
2012,06,30,04,33,14.20
2012,06,30,04,34,14.20
2012,06,30,04,35,14.20
2012,06,30,04,36,14.20
2012,06,30,04,37,14.20
2012,06,30,04,38,14.20
2012,06,30,04,39,14.20
2012,06,30,04,40,14.20
2012,06,30,04,41,14.20
2012,06,30,04,42,14.20
2012,06,30,04,43,14.20
2012,06,30,04,44,14.20
2012,06,30,04,45,14.20
2012,06,30,04,46,14.20
2012,06,30,04,47,14.20
2012,06,30,04,48,14.20
2012,06,30,04,49,14.20
2012,06,30,04,50,14.20
2012,06,30,04,51,14.20
2012,06,30,04,52,14.20
2012,06,30,04,53,14.20
2012,06,30,04,54,14.20
2012,06,30,04,55,14.20
2012,06,30,04,56,14.10
2012,06,30,04,57,14.10
2012,06,30,04,58,14.00
2012,06,30,04,59,14.00
2012,06,30,05,00,13.90
2012,06,30,05,01,13.80
2012,06,30,05,02,13.80
2012,06,30,05,03,13.70
2012,06,30,05,04,13.70
2012,06,30,05,05,13.70
2012,06,30,05,06,13.60
2012,06,30,05,07,13.60
2012,06,30,05,08,13.50
2012,06,30,05,09,13.50
2012,06,30,05,10,13.40
2012,06,30,05,11,13.40
2012,06,30,05,12,13.40
2012,06,30,05,13,13.30
2012,06,30,05,14,13.30
2012,06,30,05,15,13.30
2012,06,30,05,16,13.30
2012,06,30,05,17,13.40
2012,06,30,05,18,13.40
2012,06,30,05,19,13.40
2012,06,30,05,20,13.40
2012,06,30,05,21,13.40
2012,06,30,05,22,13.40
2012,06,30,05,23,13.40
2012,06,30,05,24,13.40
2012,06,30,05,25,13.40
2012,06,30,05,26,13.40
2012,06,30,05,27,13.40
2012,06,30,05,28,13.40
2012,06,30,05,29,13.40
2012,06,30,05,30,13.40
2012,06,30,05,31,13.40
2012,06,30,05,32,13.40
2012,06,30,05,33,13.30
2012,06,30,05,34,13.30
2012,06,30,05,35,13.30
2012,06,30,05,36,13.30
2012,06,30,05,37,13.40
2012,06,30,05,38,13.40
2012,06,30,05,39,13.40
2012,06,30,05,40,13.40
2012,06,30,05,41,13.40
2012,06,30,05,42,13.40
2012,06,30,05,43,13.40
2012,06,30,05,44,13.40
2012,06,30,05,45,13.50
2012,06,30,05,46,13.50
2012,06,30,05,47,13.50
2012,06,30,05,48,13.50
2012,06,30,05,49,13.50
2012,06,30,05,50,13.50
2012,06,30,05,51,13.50
2012,06,30,05,52,13.60
2012,06,30,05,53,13.60
2012,06,30,05,54,13.60
2012,06,30,05,55,13.60
2012,06,30,05,56,13.60
2012,06,30,05,57,13.60
2012,06,30,05,58,13.70
2012,06,30,05,59,13.70
2012,06,30,06,00,13.70
2012,06,30,06,01,13.70
2012,06,30,06,02,13.70
2012,06,30,06,03,13.70
2012,06,30,06,04,13.70
2012,06,30,06,05,13.70
2012,06,30,06,06,13.70
2012,06,30,06,07,13.60
2012,06,30,06,08,13.50
2012,06,30,06,09,13.30
2012,06,30,06,10,13.20
2012,06,30,06,11,13.10
2012,06,30,06,12,13.00
2012,06,30,06,13,12.90
2012,06,30,06,14,12.80
2012,06,30,06,15,12.70
2012,06,30,06,16,12.70
2012,06,30,06,17,12.60
2012,06,30,06,18,12.60
2012,06,30,06,19,12.60
2012,06,30,06,20,12.60
2012,06,30,06,21,12.60
2012,06,30,06,22,12.60
2012,06,30,06,23,12.60
2012,06,30,06,24,12.60
2012,06,30,06,25,12.60
2012,06,30,06,26,12.70
2012,06,30,06,27,12.70
2012,06,30,06,28,12.70
2012,06,30,06,29,12.70
2012,06,30,06,30,12.70
2012,06,30,06,31,12.80
2012,06,30,06,32,12.80
2012,06,30,06,33,12.80
2012,06,30,06,34,12.90
2012,06,30,06,35,12.90
2012,06,30,06,36,12.90
2012,06,30,06,37,12.90
2012,06,30,06,38,12.90
2012,06,30,06,39,12.90
2012,06,30,06,40,12.90
2012,06,30,06,41,12.80
2012,06,30,06,42,12.80
2012,06,30,06,43,12.80
2012,06,30,06,44,12.80
2012,06,30,06,45,12.80
2012,06,30,06,46,12.70
2012,06,30,06,47,12.70
2012,06,30,06,48,12.60
2012,06,30,06,49,12.60
2012,06,30,06,50,12.60
2012,06,30,06,51,12.60
2012,06,30,06,52,12.60
2012,06,30,06,53,12.60
2012,06,30,06,54,12.60
2012,06,30,06,55,12.60
2012,06,30,06,56,12.60
2012,06,30,06,57,12.60
2012,06,30,06,58,12.60
2012,06,30,06,59,12.60
2012,06,30,07,00,12.60
2012,06,30,07,01,12.60
2012,06,30,07,02,12.60
2012,06,30,07,03,12.60
2012,06,30,07,04,12.60
2012,06,30,07,05,12.60
2012,06,30,07,06,12.60
2012,06,30,07,07,12.60
2012,06,30,07,08,12.60
2012,06,30,07,09,12.70
2012,06,30,07,10,12.70
2012,06,30,07,11,12.70
2012,06,30,07,12,12.70
2012,06,30,07,13,12.70
2012,06,30,07,14,12.70
2012,06,30,07,15,12.80
2012,06,30,07,16,12.80
2012,06,30,07,17,12.80
2012,06,30,07,18,12.80
2012,06,30,07,19,12.80
2012,06,30,07,20,12.80
2012,06,30,07,21,12.80
2012,06,30,07,22,12.80
2012,06,30,07,23,12.80
2012,06,30,07,24,12.90
2012,06,30,07,25,12.90
2012,06,30,07,26,12.90
2012,06,30,07,27,12.90
2012,06,30,07,28,12.90
2012,06,30,07,29,12.90
2012,06,30,07,30,12.90
2012,06,30,07,31,12.90
2012,06,30,07,32,12.90
2012,06,30,07,33,13.00
2012,06,30,07,34,13.00
2012,06,30,07,35,13.00
2012,06,30,07,36,13.10
2012,06,30,07,37,13.10
2012,06,30,07,38,13.10
2012,06,30,07,39,13.10
2012,06,30,07,40,13.20
2012,06,30,07,41,13.20
2012,06,30,07,42,13.20
2012,06,30,07,43,13.20
2012,06,30,07,44,13.20
2012,06,30,07,45,13.20
2012,06,30,07,46,13.20
2012,06,30,07,47,13.20
2012,06,30,07,48,13.20
2012,06,30,07,49,13.20
2012,06,30,07,50,13.30
2012,06,30,07,51,13.30
2012,06,30,07,52,13.30
2012,06,30,07,53,13.30
2012,06,30,07,54,13.30
2012,06,30,07,55,13.40
2012,06,30,07,56,13.40
2012,06,30,07,57,13.40
2012,06,30,07,58,13.50
2012,06,30,07,59,13.50
2012,06,30,08,00,13.50
2012,06,30,08,01,13.60
2012,06,30,08,02,13.60
2012,06,30,08,03,13.70
2012,06,30,08,04,13.70
2012,06,30,08,05,13.80
2012,06,30,08,06,13.90
2012,06,30,08,07,13.90
2012,06,30,08,08,14.00
2012,06,30,08,09,14.10
2012,06,30,08,10,14.20
2012,06,30,08,11,14.20
2012,06,30,08,12,14.20
2012,06,30,08,13,14.20
2012,06,30,08,14,14.20
2012,06,30,08,15,14.20
2012,06,30,08,16,14.20
2012,06,30,08,17,14.20
2012,06,30,08,18,14.20
2012,06,30,08,19,14.20
2012,06,30,08,20,14.20
2012,06,30,08,21,14.30
2012,06,30,08,22,14.30
2012,06,30,08,23,14.40
2012,06,30,08,24,14.40
2012,06,30,08,25,14.40
2012,06,30,08,26,14.50
2012,06,30,08,27,14.40
2012,06,30,08,28,14.30
2012,06,30,08,29,14.20
2012,06,30,08,30,14.00
2012,06,30,08,31,13.90
2012,06,30,08,32,13.80
2012,06,30,08,33,13.70
2012,06,30,08,34,13.60
2012,06,30,08,35,13.50
2012,06,30,08,36,13.50
2012,06,30,08,37,13.40
2012,06,30,08,38,13.30
2012,06,30,08,39,13.30
2012,06,30,08,40,13.30
2012,06,30,08,41,13.30
2012,06,30,08,42,13.30
2012,06,30,08,43,13.30
2012,06,30,08,44,13.40
2012,06,30,08,45,13.40
2012,06,30,08,46,13.40
2012,06,30,08,47,13.50
2012,06,30,08,48,13.50
2012,06,30,08,49,13.60
2012,06,30,08,50,13.60
2012,06,30,08,51,13.70
2012,06,30,08,52,13.70
2012,06,30,08,53,13.70
2012,06,30,08,54,13.80
2012,06,30,08,55,13.90
2012,06,30,08,56,13.90
2012,06,30,08,57,14.00
2012,06,30,08,58,14.10
2012,06,30,08,59,14.10
2012,06,30,09,00,14.10
2012,06,30,09,01,13.90
2012,06,30,09,02,13.80
2012,06,30,09,03,13.60
2012,06,30,09,04,13.50
2012,06,30,09,05,13.30
2012,06,30,09,06,13.20
2012,06,30,09,07,13.20
2012,06,30,09,08,13.10
2012,06,30,09,09,13.10
2012,06,30,09,10,13.10
2012,06,30,09,11,13.20
2012,06,30,09,12,13.20
2012,06,30,09,13,13.20
2012,06,30,09,14,13.20
2012,06,30,09,15,13.30
2012,06,30,09,16,13.30
2012,06,30,09,17,13.40
2012,06,30,09,18,13.50
2012,06,30,09,19,13.50
2012,06,30,09,20,13.60
2012,06,30,09,21,13.60
2012,06,30,09,22,13.70
2012,06,30,09,23,13.80
2012,06,30,09,24,13.80
2012,06,30,09,25,13.80
2012,06,30,09,26,13.80
2012,06,30,09,27,13.90
2012,06,30,09,28,13.90
2012,06,30,09,29,13.90
2012,06,30,09,30,13.90
2012,06,30,09,31,13.90
2012,06,30,09,32,14.00
2012,06,30,09,33,14.00
2012,06,30,09,34,14.00
2012,06,30,09,35,14.00
2012,06,30,09,36,14.10
2012,06,30,09,37,14.10
2012,06,30,09,38,14.10
2012,06,30,09,39,14.00
2012,06,30,09,40,13.90
2012,06,30,09,41,13.90
2012,06,30,09,42,14.00
2012,06,30,09,43,14.00
2012,06,30,09,44,14.10
2012,06,30,09,45,14.00
2012,06,30,09,46,14.00
2012,06,30,09,47,14.00
2012,06,30,09,48,14.00
2012,06,30,09,49,14.00
2012,06,30,09,50,14.00
2012,06,30,09,51,14.00
2012,06,30,09,52,14.00
2012,06,30,09,53,13.90
2012,06,30,09,54,13.90
2012,06,30,09,55,13.80
2012,06,30,09,56,13.80
2012,06,30,09,57,13.80
2012,06,30,09,58,13.70
2012,06,30,09,59,13.70
2012,06,30,10,00,13.70
2012,06,30,10,01,13.70
2012,06,30,10,02,13.70
2012,06,30,10,03,13.80
2012,06,30,10,04,13.80
2012,06,30,10,05,13.90
2012,06,30,10,06,13.90
2012,06,30,10,07,14.10
2012,06,30,10,08,14.20
2012,06,30,10,09,14.20
2012,06,30,10,10,14.30
2012,06,30,10,11,14.30
2012,06,30,10,12,14.40
2012,06,30,10,13,14.50
2012,06,30,10,14,14.70
2012,06,30,10,15,14.80
2012,06,30,10,16,14.90
2012,06,30,10,17,15.00
2012,06,30,10,18,15.00
2012,06,30,10,19,15.00
2012,06,30,10,20,15.00
2012,06,30,10,21,15.10
2012,06,30,10,22,15.20
2012,06,30,10,23,15.30
2012,06,30,10,24,15.40
2012,06,30,10,25,15.50
2012,06,30,10,26,15.60
2012,06,30,10,27,15.50
2012,06,30,10,28,15.40
2012,06,30,10,29,15.20
2012,06,30,10,30,15.10
2012,06,30,10,31,15.00
2012,06,30,10,32,14.90
2012,06,30,10,33,14.80
2012,06,30,10,34,14.70
2012,06,30,10,35,14.70
2012,06,30,10,36,14.60
2012,06,30,10,37,14.60
2012,06,30,10,38,14.60
2012,06,30,10,39,14.70
2012,06,30,10,40,14.70
2012,06,30,10,41,14.70
2012,06,30,10,42,14.70
2012,06,30,10,43,14.70
2012,06,30,10,44,14.80
2012,06,30,10,45,14.80
2012,06,30,10,46,14.90
2012,06,30,10,47,15.00
2012,06,30,10,48,15.10
2012,06,30,10,49,15.00
2012,06,30,10,50,14.90
2012,06,30,10,51,14.90
2012,06,30,10,52,14.90
2012,06,30,10,53,15.00
2012,06,30,10,54,15.00
2012,06,30,10,55,14.90
2012,06,30,10,56,14.90
2012,06,30,10,57,14.90
2012,06,30,10,58,14.90
2012,06,30,10,59,14.80
2012,06,30,11,00,14.90
2012,06,30,11,01,15.00
2012,06,30,11,02,15.00
2012,06,30,11,03,14.90
2012,06,30,11,04,14.80
2012,06,30,11,05,14.80
2012,06,30,11,06,14.80
2012,06,30,11,07,14.80
2012,06,30,11,08,14.80
2012,06,30,11,09,14.80
2012,06,30,11,10,14.80
2012,06,30,11,11,14.80
2012,06,30,11,12,14.90
2012,06,30,11,13,14.90
2012,06,30,11,14,15.00
2012,06,30,11,15,15.00
2012,06,30,11,16,15.00
2012,06,30,11,17,15.00
2012,06,30,11,18,15.00
2012,06,30,11,19,14.90
2012,06,30,11,20,14.90
2012,06,30,11,21,14.80
2012,06,30,11,22,14.60
2012,06,30,11,23,14.50
2012,06,30,11,24,14.40
2012,06,30,11,25,14.20
2012,06,30,11,26,14.10
2012,06,30,11,27,14.00
2012,06,30,11,28,14.00
2012,06,30,11,29,14.00
2012,06,30,11,30,14.00
2012,06,30,11,31,14.10
2012,06,30,11,32,14.10
2012,06,30,11,33,14.10
2012,06,30,11,34,14.10
2012,06,30,11,35,14.30
2012,06,30,11,36,14.50
2012,06,30,11,37,14.60
2012,06,30,11,38,14.60
2012,06,30,11,39,14.60
2012,06,30,11,40,14.60
2012,06,30,11,41,14.60
2012,06,30,11,42,14.60
2012,06,30,11,43,14.70
2012,06,30,11,44,14.80
2012,06,30,11,45,14.80
2012,06,30,11,46,14.80
2012,06,30,11,47,14.70
2012,06,30,11,48,14.60
2012,06,30,11,49,14.50
2012,06,30,11,50,14.50
2012,06,30,11,51,14.40
2012,06,30,11,52,14.40
2012,06,30,11,53,14.40
2012,06,30,11,54,14.40
2012,06,30,11,55,14.40
2012,06,30,11,56,14.40
2012,06,30,11,57,14.40
2012,06,30,11,58,14.40
2012,06,30,11,59,14.30
2012,06,30,12,00,14.30
2012,06,30,12,01,14.20
2012,06,30,12,02,14.20
2012,06,30,12,03,14.20
2012,06,30,12,04,14.30
2012,06,30,12,05,14.30
2012,06,30,12,06,14.20
2012,06,30,12,07,14.30
2012,06,30,12,08,14.20
2012,06,30,12,09,14.20
2012,06,30,12,10,14.10
2012,06,30,12,11,14.10
2012,06,30,12,12,14.10
2012,06,30,12,13,14.20
2012,06,30,12,14,14.20
2012,06,30,12,15,14.20
2012,06,30,12,16,14.30
2012,06,30,12,17,14.20
2012,06,30,12,18,14.20
2012,06,30,12,19,14.20
2012,06,30,12,20,14.20
2012,06,30,12,21,14.10
2012,06,30,12,22,14.00
2012,06,30,12,23,13.90
2012,06,30,12,24,13.80
2012,06,30,12,25,13.80
2012,06,30,12,26,13.80
2012,06,30,12,27,13.90
2012,06,30,12,28,13.90
2012,06,30,12,29,14.00
2012,06,30,12,30,14.10
2012,06,30,12,31,14.10
2012,06,30,12,32,14.20
2012,06,30,12,33,14.10
2012,06,30,12,34,14.10
2012,06,30,12,35,14.10
2012,06,30,12,36,14.10
2012,06,30,12,37,14.00
2012,06,30,12,38,14.00
2012,06,30,12,39,13.90
2012,06,30,12,40,13.90
2012,06,30,12,41,13.90
2012,06,30,12,42,13.90
2012,06,30,12,43,14.00
2012,06,30,12,44,13.90
2012,06,30,12,45,14.00
2012,06,30,12,46,14.00
2012,06,30,12,47,14.10
2012,06,30,12,48,14.10
2012,06,30,12,49,14.00
2012,06,30,12,50,14.00
2012,06,30,12,51,14.00
2012,06,30,12,52,14.00
2012,06,30,12,53,14.00
2012,06,30,12,54,14.10
2012,06,30,12,55,14.20
2012,06,30,12,56,14.20
2012,06,30,12,57,14.20
2012,06,30,12,58,14.40
2012,06,30,12,59,14.50
2012,06,30,13,00,14.60
2012,06,30,13,01,14.70
2012,06,30,13,02,14.90
2012,06,30,13,03,15.00
2012,06,30,13,04,15.10
2012,06,30,13,05,15.20
2012,06,30,13,06,15.30
2012,06,30,13,07,15.40
2012,06,30,13,08,15.40
2012,06,30,13,09,15.50
2012,06,30,13,10,15.60
2012,06,30,13,11,15.60
2012,06,30,13,12,15.60
2012,06,30,13,13,15.50
2012,06,30,13,14,15.50
2012,06,30,13,15,15.50
2012,06,30,13,16,15.50
2012,06,30,13,17,15.50
2012,06,30,13,18,15.40
2012,06,30,13,19,15.40
2012,06,30,13,20,15.30
2012,06,30,13,21,15.30
2012,06,30,13,22,15.30
2012,06,30,13,23,15.30
2012,06,30,13,24,15.40
2012,06,30,13,25,15.50
2012,06,30,13,26,15.60
2012,06,30,13,27,15.60
2012,06,30,13,28,15.70
2012,06,30,13,29,15.70
2012,06,30,13,30,15.80
2012,06,30,13,31,15.80
2012,06,30,13,32,15.80
2012,06,30,13,33,15.80
2012,06,30,13,34,15.90
2012,06,30,13,35,15.90
2012,06,30,13,36,15.90
2012,06,30,13,37,16.00
2012,06,30,13,38,16.10
2012,06,30,13,39,16.10
2012,06,30,13,40,16.10
2012,06,30,13,41,16.10
2012,06,30,13,42,16.10
2012,06,30,13,43,16.10
2012,06,30,13,44,16.10
2012,06,30,13,45,16.10
2012,06,30,13,46,16.10
2012,06,30,13,47,16.10
2012,06,30,13,48,16.20
2012,06,30,13,49,16.20
2012,06,30,13,50,16.20
2012,06,30,13,51,16.20
2012,06,30,13,52,16.20
2012,06,30,13,53,16.10
2012,06,30,13,54,16.10
2012,06,30,13,55,16.10
2012,06,30,13,56,16.10
2012,06,30,13,57,16.10
2012,06,30,13,58,16.10
2012,06,30,13,59,16.00
2012,06,30,14,00,15.90
2012,06,30,14,01,15.80
2012,06,30,14,02,15.80
2012,06,30,14,03,15.90
2012,06,30,14,04,15.90
2012,06,30,14,05,15.90
2012,06,30,14,06,15.90
2012,06,30,14,07,15.90
2012,06,30,14,08,16.00
2012,06,30,14,09,16.10
2012,06,30,14,10,16.10
2012,06,30,14,11,16.20
2012,06,30,14,12,16.20
2012,06,30,14,13,16.30
2012,06,30,14,14,16.40
2012,06,30,14,15,16.50
2012,06,30,14,16,16.70
2012,06,30,14,17,16.90
2012,06,30,14,18,16.90
2012,06,30,14,19,17.00
2012,06,30,14,20,17.20
2012,06,30,14,21,17.40
2012,06,30,14,22,17.50
2012,06,30,14,23,17.70
2012,06,30,14,24,17.80
2012,06,30,14,25,17.90
2012,06,30,14,26,18.10
2012,06,30,14,27,18.30
2012,06,30,14,28,18.50
2012,06,30,14,29,18.60
2012,06,30,14,30,18.70
2012,06,30,14,31,18.80
2012,06,30,14,32,18.90
2012,06,30,14,33,18.90
2012,06,30,14,34,18.90
2012,06,30,14,35,19.00
2012,06,30,14,36,19.10
2012,06,30,14,37,19.10
2012,06,30,14,38,18.90
2012,06,30,14,39,18.90
2012,06,30,14,40,18.90
2012,06,30,14,41,18.90
2012,06,30,14,42,18.90
2012,06,30,14,43,19.00
2012,06,30,14,44,19.10
2012,06,30,14,45,19.10
2012,06,30,14,46,19.10
2012,06,30,14,47,19.10
2012,06,30,14,48,19.10
2012,06,30,14,49,19.10
2012,06,30,14,50,19.10
2012,06,30,14,51,19.10
2012,06,30,14,52,19.10
2012,06,30,14,53,19.00
2012,06,30,14,54,18.90
2012,06,30,14,55,18.90
2012,06,30,14,56,18.90
2012,06,30,14,57,18.90
2012,06,30,14,58,18.90
2012,06,30,14,59,19.00
2012,06,30,15,00,19.10
2012,06,30,15,01,19.00
2012,06,30,15,02,18.90
2012,06,30,15,03,18.90
2012,06,30,15,04,18.90
2012,06,30,15,05,18.90
2012,06,30,15,06,18.90
2012,06,30,15,07,18.90
2012,06,30,15,08,18.90
2012,06,30,15,09,18.80
2012,06,30,15,10,18.80
2012,06,30,15,11,18.80
2012,06,30,15,12,18.80
2012,06,30,15,13,18.80
2012,06,30,15,14,18.80
2012,06,30,15,15,18.80
2012,06,30,15,16,18.80
2012,06,30,15,17,18.80
2012,06,30,15,18,18.70
2012,06,30,15,19,18.70
2012,06,30,15,20,18.70
2012,06,30,15,21,18.60
2012,06,30,15,22,18.60
2012,06,30,15,23,18.70
2012,06,30,15,24,18.60
2012,06,30,15,25,18.60
2012,06,30,15,26,18.60
2012,06,30,15,27,18.60
2012,06,30,15,28,18.60
2012,06,30,15,29,18.50
2012,06,30,15,30,18.50
2012,06,30,15,31,18.50
2012,06,30,15,32,18.50
2012,06,30,15,33,18.40
2012,06,30,15,34,18.40
2012,06,30,15,35,18.30
2012,06,30,15,36,18.30
2012,06,30,15,37,18.30
2012,06,30,15,38,18.30
2012,06,30,15,39,18.30
2012,06,30,15,40,18.30
2012,06,30,15,41,18.20
2012,06,30,15,42,18.20
2012,06,30,15,43,18.10
2012,06,30,15,44,18.10
2012,06,30,15,45,18.00
2012,06,30,15,46,17.90
2012,06,30,15,47,18.00
2012,06,30,15,48,18.10
2012,06,30,15,49,18.00
2012,06,30,15,50,18.00
2012,06,30,15,51,17.90
2012,06,30,15,52,17.90
2012,06,30,15,53,17.80
2012,06,30,15,54,17.80
2012,06,30,15,55,17.60
2012,06,30,15,56,17.50
2012,06,30,15,57,17.40
2012,06,30,15,58,17.30
2012,06,30,15,59,17.20
2012,06,30,16,00,17.10
2012,06,30,16,01,17.00
2012,06,30,16,02,17.00
2012,06,30,16,03,17.00
2012,06,30,16,04,17.00
2012,06,30,16,05,17.00
2012,06,30,16,06,16.90
2012,06,30,16,07,17.00
2012,06,30,16,08,17.00
2012,06,30,16,09,17.00
2012,06,30,16,10,17.00
2012,06,30,16,11,17.00
2012,06,30,16,12,17.00
2012,06,30,16,13,17.10
2012,06,30,16,14,17.10
2012,06,30,16,15,17.10
2012,06,30,16,16,17.10
2012,06,30,16,17,17.20
2012,06,30,16,18,17.20
2012,06,30,16,19,17.20
2012,06,30,16,20,17.20
2012,06,30,16,21,17.20
2012,06,30,16,22,17.20
2012,06,30,16,23,17.20
2012,06,30,16,24,17.20
2012,06,30,16,25,17.30
2012,06,30,16,26,17.30
2012,06,30,16,27,17.30
2012,06,30,16,28,17.30
2012,06,30,16,29,17.30
2012,06,30,16,30,17.30
2012,06,30,16,31,17.30
2012,06,30,16,32,17.30
2012,06,30,16,33,17.30
2012,06,30,16,34,17.30
2012,06,30,16,35,17.30
2012,06,30,16,36,17.30
2012,06,30,16,37,17.30
2012,06,30,16,38,17.30
2012,06,30,16,39,17.30
2012,06,30,16,40,17.30
2012,06,30,16,41,17.40
2012,06,30,16,42,17.40
2012,06,30,16,43,17.40
2012,06,30,16,44,17.40
2012,06,30,16,45,17.40
2012,06,30,16,46,17.40
2012,06,30,16,47,17.40
2012,06,30,16,48,17.40
2012,06,30,16,49,17.40
2012,06,30,16,50,17.40
2012,06,30,16,51,17.40
2012,06,30,16,52,17.40
2012,06,30,16,53,17.40
2012,06,30,16,54,17.40
2012,06,30,16,55,17.40
2012,06,30,16,56,17.40
2012,06,30,16,57,17.40
2012,06,30,16,58,17.40
2012,06,30,16,59,17.40
2012,06,30,17,00,17.40
2012,06,30,17,01,17.30
2012,06,30,17,02,17.40
2012,06,30,17,03,17.40
2012,06,30,17,04,17.50
2012,06,30,17,05,17.50
2012,06,30,17,06,17.60
2012,06,30,17,07,17.60
2012,06,30,17,08,17.60
2012,06,30,17,09,17.60
2012,06,30,17,10,17.60
2012,06,30,17,11,17.60
2012,06,30,17,12,17.60
2012,06,30,17,13,17.60
2012,06,30,17,14,17.60
2012,06,30,17,15,17.60
2012,06,30,17,16,17.60
2012,06,30,17,17,17.60
2012,06,30,17,18,17.50
2012,06,30,17,19,17.50